Regional Weather Roundup
Issued by NWS Sioux Falls, SD

Home | Current Version | Previous Version | Graphics & Text | Print | Product List | Glossary On
Versions: 1 2 3 4 5 6 7 8 9 10 11 12 13 14 15 16 17 18 19 20 21 22 23 24 25 26 27 28 29 30 31 32 33 34 35 36 37 38 39 40 41 42 43 44 45 46 47 48 49 50
000
ASUS43 KFSD 040810
RWRFSD

WEATHER ROUNDUP FOR SE SOUTH DAKOTA/SW MINNESOTA/NW IOWA
NATIONAL WEATHER SERVICE SIOUX FALLS SD
300 AM CDT TUE AUG 04 2015

NOTE: "FAIR" INDICATES FEW OR NO CLOUDS BELOW 12,000 FEET WITH NO
SIGNIFICANT WEATHER AND OR OBSTRUCTIONS TO VISIBILITY.


SDZ038>040-050-052>070-040900-
SOUTHEAST SOUTH DAKOTA

CITY           SKY/WX    TMP DP  RH WIND       PRES   REMARKS
BROOKINGS      CLEAR     55  52  88 CALM      29.99F
CHAMBERLAIN    CLOUDY    65  56  71 SE7       29.94F
HURON          PTCLDY    61  55  81 SE7       29.94F
MADISON        FAIR      55  55 100 E7        29.98F
MITCHELL       CLEAR     59  57  93 E5        29.95F
SIOUX FALLS    CLEAR     58  56  93 NE5       29.96F
WINNER         TSTM      69  63  81 SE15      29.91F
YANKTON        PTCLDY    64  63  94 E7        29.94R
$$

MNZ071-072-080-081-089-090-097-098-040900-
SOUTHWEST MINNESOTA

CITY           SKY/WX    TMP DP  RH WIND       PRES   REMARKS
FAIRMONT       CLEAR     57  48  72 CALM      29.98R
JACKSON        CLEAR     55  54  94 CALM      29.99F
LUVERNE        CLEAR     59  55  88 CALM      29.99S
MARSHALL       CLEAR     55  48  76 CALM      29.98S
MONTEVIDEO     CLEAR     54  45  71 CALM      29.99S
PIPESTONE      CLEAR     59  52  77 CALM      29.98F
REDWOOD FALLS  CLEAR     56  51  84 CALM      29.97S
TRACY          CLEAR     59  54  82 CALM      29.98F
WINDOM         CLEAR     57  54  88 CALM      29.99S
WORTHINGTON    CLEAR     55  48  76 SW3       30.00S
$$

IAZ001>003-012>014-020>022-031-032-NEZ013-014-SDZ071-040900-
NORTHWEST IOWA

CITY           SKY/WX    TMP DP  RH WIND       PRES   REMARKS
CHEROKEE       CLEAR     60  60 100 CALM      29.96F
DENISON        CLOUDY    66  64  94 CALM      29.95F
ESTHERVILLE    CLEAR     55  53  93 CALM      29.98F
LE MARS        CLEAR     61  59  94 N3        29.96F
ORANGE CITY    CLEAR     63  59  88 NE3       29.96F
SHELDON        CLEAR     57  55  94 CALM      29.96F
SIOUX CITY     CLEAR     66  61  84 E6        29.94F
SPENCER        CLEAR     58  54  86 N3        29.98F
STORM LAKE     CLEAR     63  57  82 SW5       29.98F
$$

ABBREVIATIONS USED IN REMARKS
   TC - TEMPERATURE IN CELSIUS
  WCI - WIND CHILL INDEX
   HX - HEAT INDEX
  VSB - VISIBILITY



USA.gov is the U.S. government's official web portal to all federal, state and local government web resources and services.